Year,Month,Day,Hour,Minute,Value (Times are PST for temperature in C)
2008,03,26,00,00,4.10
2008,03,26,00,01,4.10
2008,03,26,00,02,4.10
2008,03,26,00,03,4.10
2008,03,26,00,04,4.10
2008,03,26,00,05,4.10
2008,03,26,00,06,4.10
2008,03,26,00,07,4.10
2008,03,26,00,08,4.10
2008,03,26,00,09,4.20
2008,03,26,00,10,4.20
2008,03,26,00,11,4.20
2008,03,26,00,12,4.20
2008,03,26,00,13,4.20
2008,03,26,00,14,4.20
2008,03,26,00,15,4.20
2008,03,26,00,16,4.30
2008,03,26,00,17,4.30
2008,03,26,00,18,4.30
2008,03,26,00,19,4.30
2008,03,26,00,20,4.30
2008,03,26,00,21,4.30
2008,03,26,00,22,4.30
2008,03,26,00,23,4.20
2008,03,26,00,24,4.20
2008,03,26,00,25,4.20
2008,03,26,00,26,4.20
2008,03,26,00,27,4.20
2008,03,26,00,28,4.10
2008,03,26,00,29,4.10
2008,03,26,00,30,4.10
2008,03,26,00,31,4.10
2008,03,26,00,32,4.10
2008,03,26,00,33,4.00
2008,03,26,00,34,4.00
2008,03,26,00,35,3.90
2008,03,26,00,36,3.90
2008,03,26,00,37,3.90
2008,03,26,00,38,3.90
2008,03,26,00,39,3.80
2008,03,26,00,40,3.80
2008,03,26,00,41,3.80
2008,03,26,00,42,3.80
2008,03,26,00,43,3.70
2008,03,26,00,44,3.70
2008,03,26,00,45,3.70
2008,03,26,00,46,3.70
2008,03,26,00,47,3.70
2008,03,26,00,48,3.70
2008,03,26,00,49,3.60
2008,03,26,00,50,3.60
2008,03,26,00,51,3.60
2008,03,26,00,52,3.60
2008,03,26,00,53,3.50
2008,03,26,00,54,3.50
2008,03,26,00,55,3.50
2008,03,26,00,56,3.40
2008,03,26,00,57,3.40
2008,03,26,00,58,3.40
2008,03,26,00,59,3.40
2008,03,26,01,00,3.40
2008,03,26,01,01,3.40
2008,03,26,01,02,3.40
2008,03,26,01,03,3.40
2008,03,26,01,04,3.30
2008,03,26,01,05,3.30
2008,03,26,01,06,3.30
2008,03,26,01,07,3.30
2008,03,26,01,08,3.30
2008,03,26,01,09,3.30
2008,03,26,01,10,3.30
2008,03,26,01,11,3.30
2008,03,26,01,12,3.30
2008,03,26,01,13,3.30
2008,03,26,01,14,3.20
2008,03,26,01,15,3.20
2008,03,26,01,16,3.20
2008,03,26,01,17,3.20
2008,03,26,01,18,3.20
2008,03,26,01,19,3.20
2008,03,26,01,20,3.20
2008,03,26,01,21,3.20
2008,03,26,01,22,3.20
2008,03,26,01,23,3.20
2008,03,26,01,24,3.20
2008,03,26,01,25,3.20
2008,03,26,01,26,3.20
2008,03,26,01,27,3.20
2008,03,26,01,28,3.20
2008,03,26,01,29,3.20
2008,03,26,01,30,3.20
2008,03,26,01,31,3.20
2008,03,26,01,32,3.20
2008,03,26,01,33,3.20
2008,03,26,01,34,3.20
2008,03,26,01,35,3.20
2008,03,26,01,36,3.20
2008,03,26,01,37,3.20
2008,03,26,01,38,3.20
2008,03,26,01,39,3.20
2008,03,26,01,40,3.20
2008,03,26,01,41,3.10
2008,03,26,01,42,3.10
2008,03,26,01,43,3.10
2008,03,26,01,44,3.10
2008,03,26,01,45,3.00
2008,03,26,01,46,3.00
2008,03,26,01,47,3.00
2008,03,26,01,48,2.90
2008,03,26,01,49,2.90
2008,03,26,01,50,2.90
2008,03,26,01,51,2.80
2008,03,26,01,52,2.80
2008,03,26,01,53,2.80
2008,03,26,01,54,2.80
2008,03,26,01,55,2.70
2008,03,26,01,56,2.70
2008,03,26,01,57,2.70
2008,03,26,01,58,2.70
2008,03,26,01,59,2.60
2008,03,26,02,00,2.60
2008,03,26,02,01,2.60
2008,03,26,02,02,2.60
2008,03,26,02,03,2.50
2008,03,26,02,04,2.50
2008,03,26,02,05,2.50
2008,03,26,02,06,2.40
2008,03,26,02,07,2.40
2008,03,26,02,08,2.40
2008,03,26,02,09,2.30
2008,03,26,02,10,2.30
2008,03,26,02,11,2.30
2008,03,26,02,12,2.30
2008,03,26,02,13,2.30
2008,03,26,02,14,2.30
2008,03,26,02,15,2.20
2008,03,26,02,16,2.20
2008,03,26,02,17,2.20
2008,03,26,02,18,2.20
2008,03,26,02,19,2.20
2008,03,26,02,20,2.20
2008,03,26,02,21,2.20
2008,03,26,02,22,2.30
2008,03,26,02,23,2.40
2008,03,26,02,24,2.40
2008,03,26,02,25,2.50
2008,03,26,02,26,2.60
2008,03,26,02,27,2.70
2008,03,26,02,28,2.70
2008,03,26,02,29,2.70
2008,03,26,02,30,2.70
2008,03,26,02,31,2.70
2008,03,26,02,32,2.70
2008,03,26,02,33,2.60
2008,03,26,02,34,2.60
2008,03,26,02,35,2.60
2008,03,26,02,36,2.60
2008,03,26,02,37,2.50
2008,03,26,02,38,2.50
2008,03,26,02,39,2.50
2008,03,26,02,40,2.40
2008,03,26,02,41,2.40
2008,03,26,02,42,2.40
2008,03,26,02,43,2.40
2008,03,26,02,44,2.40
2008,03,26,02,45,2.40
2008,03,26,02,46,2.30
2008,03,26,02,47,2.30
2008,03,26,02,48,2.30
2008,03,26,02,49,2.30
2008,03,26,02,50,2.20
2008,03,26,02,51,2.20
2008,03,26,02,52,2.10
2008,03,26,02,53,2.00
2008,03,26,02,54,1.90
2008,03,26,02,55,1.90
2008,03,26,02,56,1.80
2008,03,26,02,57,1.80
2008,03,26,02,58,1.80
2008,03,26,02,59,1.80
2008,03,26,03,00,1.80
2008,03,26,03,01,1.70
2008,03,26,03,02,1.70
2008,03,26,03,03,1.60
2008,03,26,03,04,1.60
2008,03,26,03,05,1.50
2008,03,26,03,06,1.40
2008,03,26,03,07,1.40
2008,03,26,03,08,1.30
2008,03,26,03,09,1.30
2008,03,26,03,10,1.30
2008,03,26,03,11,1.30
2008,03,26,03,12,1.30
2008,03,26,03,13,1.30
2008,03,26,03,14,1.30
2008,03,26,03,15,1.30
2008,03,26,03,16,1.20
2008,03,26,03,17,1.20
2008,03,26,03,18,1.20
2008,03,26,03,19,1.10
2008,03,26,03,20,1.10
2008,03,26,03,21,1.10
2008,03,26,03,22,1.10
2008,03,26,03,23,1.10
2008,03,26,03,24,1.00
2008,03,26,03,25,1.00
2008,03,26,03,26,1.00
2008,03,26,03,27,0.90
2008,03,26,03,28,0.90
2008,03,26,03,29,0.80
2008,03,26,03,30,0.80
2008,03,26,03,31,0.80
2008,03,26,03,32,0.80
2008,03,26,03,33,0.70
2008,03,26,03,34,0.70
2008,03,26,03,35,0.70
2008,03,26,03,36,0.70
2008,03,26,03,37,0.70
2008,03,26,03,38,0.70
2008,03,26,03,39,0.60
2008,03,26,03,40,0.60
2008,03,26,03,41,0.60
2008,03,26,03,42,0.60
2008,03,26,03,43,0.60
2008,03,26,03,44,0.60
2008,03,26,03,45,0.60
2008,03,26,03,46,0.60
2008,03,26,03,47,0.60
2008,03,26,03,48,0.60
2008,03,26,03,49,0.60
2008,03,26,03,50,0.60
2008,03,26,03,51,0.60
2008,03,26,03,52,0.60
2008,03,26,03,53,0.60
2008,03,26,03,54,0.60
2008,03,26,03,55,0.50
2008,03,26,03,56,0.50
2008,03,26,03,57,0.50
2008,03,26,03,58,0.50
2008,03,26,03,59,0.50
2008,03,26,04,00,0.50
2008,03,26,04,01,0.50
2008,03,26,04,02,0.50
2008,03,26,04,03,0.50
2008,03,26,04,04,0.50
2008,03,26,04,05,0.50
2008,03,26,04,06,0.40
2008,03,26,04,07,0.40
2008,03,26,04,08,0.40
2008,03,26,04,09,0.40
2008,03,26,04,10,0.40
2008,03,26,04,11,0.50
2008,03,26,04,12,0.60
2008,03,26,04,13,0.70
2008,03,26,04,14,0.70
2008,03,26,04,15,0.70
2008,03,26,04,16,0.80
2008,03,26,04,17,0.80
2008,03,26,04,18,0.80
2008,03,26,04,19,0.90
2008,03,26,04,20,0.90
2008,03,26,04,21,0.90
2008,03,26,04,22,0.90
2008,03,26,04,23,1.00
2008,03,26,04,24,1.10
2008,03,26,04,25,1.20
2008,03,26,04,26,1.20
2008,03,26,04,27,1.20
2008,03,26,04,28,1.20
2008,03,26,04,29,1.30
2008,03,26,04,30,1.30
2008,03,26,04,31,1.30
2008,03,26,04,32,1.30
2008,03,26,04,33,1.30
2008,03,26,04,34,1.30
2008,03,26,04,35,1.30
2008,03,26,04,36,1.30
2008,03,26,04,37,1.30
2008,03,26,04,38,1.30
2008,03,26,04,39,1.30
2008,03,26,04,40,1.30
2008,03,26,04,41,1.30
2008,03,26,04,42,1.30
2008,03,26,04,43,1.30
2008,03,26,04,44,1.30
2008,03,26,04,45,1.30
2008,03,26,04,46,1.30
2008,03,26,04,47,1.30
2008,03,26,04,48,1.30
2008,03,26,04,49,1.30
2008,03,26,04,50,1.20
2008,03,26,04,51,1.20
2008,03,26,04,52,1.20
2008,03,26,04,53,1.20
2008,03,26,04,54,1.20
2008,03,26,04,55,1.20
2008,03,26,04,56,1.20
2008,03,26,04,57,1.20
2008,03,26,04,58,1.20
2008,03,26,04,59,1.20
2008,03,26,05,00,1.20
2008,03,26,05,01,1.20
2008,03,26,05,02,1.30
2008,03,26,05,03,1.20
2008,03,26,05,04,1.20
2008,03,26,05,05,1.20
2008,03,26,05,06,1.20
2008,03,26,05,07,1.20
2008,03,26,05,08,1.30
2008,03,26,05,09,1.30
2008,03,26,05,10,1.30
2008,03,26,05,11,1.30
2008,03,26,05,12,1.30
2008,03,26,05,13,1.30
2008,03,26,05,14,1.30
2008,03,26,05,15,1.30
2008,03,26,05,16,1.30
2008,03,26,05,17,1.30
2008,03,26,05,18,1.30
2008,03,26,05,19,1.30
2008,03,26,05,20,1.30
2008,03,26,05,21,1.30
2008,03,26,05,22,1.30
2008,03,26,05,23,1.40
2008,03,26,05,24,1.50
2008,03,26,05,25,1.50
2008,03,26,05,26,1.60
2008,03,26,05,27,1.60
2008,03,26,05,28,1.50
2008,03,26,05,29,1.50
2008,03,26,05,30,1.50
2008,03,26,05,31,1.40
2008,03,26,05,32,1.40
2008,03,26,05,33,1.40
2008,03,26,05,34,1.30
2008,03,26,05,35,1.30
2008,03,26,05,36,1.30
2008,03,26,05,37,1.30
2008,03,26,05,38,1.30
2008,03,26,05,39,1.30
2008,03,26,05,40,1.30
2008,03,26,05,41,1.30
2008,03,26,05,42,1.30
2008,03,26,05,43,1.30
2008,03,26,05,44,1.30
2008,03,26,05,45,1.30
2008,03,26,05,46,1.30
2008,03,26,05,47,1.30
2008,03,26,05,48,1.30
2008,03,26,05,49,1.30
2008,03,26,05,50,1.30
2008,03,26,05,51,1.30
2008,03,26,05,52,1.30
2008,03,26,05,53,1.30
2008,03,26,05,54,1.30
2008,03,26,05,55,1.30
2008,03,26,05,56,1.30
2008,03,26,05,57,1.30
2008,03,26,05,58,1.30
2008,03,26,05,59,1.30
2008,03,26,06,00,1.30
2008,03,26,06,01,1.30
2008,03,26,06,02,1.30
2008,03,26,06,03,1.20
2008,03,26,06,04,1.20
2008,03,26,06,05,1.20
2008,03,26,06,06,1.10
2008,03,26,06,07,1.10
2008,03,26,06,08,1.10
2008,03,26,06,09,1.00
2008,03,26,06,10,1.00
2008,03,26,06,11,1.00
2008,03,26,06,12,1.00
2008,03,26,06,13,1.00
2008,03,26,06,14,1.00
2008,03,26,06,15,1.00
2008,03,26,06,16,1.00
2008,03,26,06,17,1.10
2008,03,26,06,18,1.10
2008,03,26,06,19,1.10
2008,03,26,06,20,1.10
2008,03,26,06,21,1.00
2008,03,26,06,22,1.00
2008,03,26,06,23,0.90
2008,03,26,06,24,0.90
2008,03,26,06,25,0.90
2008,03,26,06,26,0.90
2008,03,26,06,27,0.80
2008,03,26,06,28,0.80
2008,03,26,06,29,0.70
2008,03,26,06,30,0.70
2008,03,26,06,31,0.80
2008,03,26,06,32,0.80
2008,03,26,06,33,0.80
2008,03,26,06,34,0.80
2008,03,26,06,35,0.80
2008,03,26,06,36,0.80
2008,03,26,06,37,0.80
2008,03,26,06,38,0.80
2008,03,26,06,39,0.80
2008,03,26,06,40,0.80
2008,03,26,06,41,0.80
2008,03,26,06,42,0.80
2008,03,26,06,43,0.80
2008,03,26,06,44,0.90
2008,03,26,06,45,0.90
2008,03,26,06,46,1.00
2008,03,26,06,47,1.00
2008,03,26,06,48,1.00
2008,03,26,06,49,1.00
2008,03,26,06,50,1.10
2008,03,26,06,51,1.00
2008,03,26,06,52,1.00
2008,03,26,06,53,1.00
2008,03,26,06,54,1.00
2008,03,26,06,55,1.10
2008,03,26,06,56,1.10
2008,03,26,06,57,1.10
2008,03,26,06,58,1.10
2008,03,26,06,59,1.10
2008,03,26,07,00,1.20
2008,03,26,07,01,1.20
2008,03,26,07,02,1.30
2008,03,26,07,03,1.30
2008,03,26,07,04,1.30
2008,03,26,07,05,1.50
2008,03,26,07,06,1.60
2008,03,26,07,07,1.70
2008,03,26,07,08,1.80
2008,03,26,07,09,1.80
2008,03,26,07,10,1.80
2008,03,26,07,11,1.80
2008,03,26,07,12,1.90
2008,03,26,07,13,1.90
2008,03,26,07,14,1.90
2008,03,26,07,15,1.90
2008,03,26,07,16,1.90
2008,03,26,07,17,1.90
2008,03,26,07,18,1.90
2008,03,26,07,19,1.90
2008,03,26,07,20,1.90
2008,03,26,07,21,1.90
2008,03,26,07,22,1.90
2008,03,26,07,23,1.90
2008,03,26,07,24,1.90
2008,03,26,07,25,1.90
2008,03,26,07,26,1.90
2008,03,26,07,27,1.80
2008,03,26,07,28,1.80
2008,03,26,07,29,1.80
2008,03,26,07,30,1.80
2008,03,26,07,31,1.80
2008,03,26,07,32,1.90
2008,03,26,07,33,1.90
2008,03,26,07,34,2.00
2008,03,26,07,35,2.10
2008,03,26,07,36,2.10
2008,03,26,07,37,2.10
2008,03,26,07,38,2.10
2008,03,26,07,39,2.10
2008,03,26,07,40,2.10
2008,03,26,07,41,2.10
2008,03,26,07,42,2.10
2008,03,26,07,43,2.10
2008,03,26,07,44,2.10
2008,03,26,07,45,2.20
2008,03,26,07,46,2.20
2008,03,26,07,47,2.20
2008,03,26,07,48,2.20
2008,03,26,07,49,2.20
2008,03,26,07,50,2.20
2008,03,26,07,51,2.20
2008,03,26,07,52,2.20
2008,03,26,07,53,2.20
2008,03,26,07,54,2.20
2008,03,26,07,55,2.10
2008,03,26,07,56,2.10
2008,03,26,07,57,2.10
2008,03,26,07,58,2.10
2008,03,26,07,59,2.10
2008,03,26,08,00,2.20
2008,03,26,08,01,2.10
2008,03,26,08,02,2.10
2008,03,26,08,03,2.10
2008,03,26,08,04,2.10
2008,03,26,08,05,2.10
2008,03,26,08,06,2.10
2008,03,26,08,07,2.10
2008,03,26,08,08,2.00
2008,03,26,08,09,2.00
2008,03,26,08,10,1.90
2008,03,26,08,11,1.90
2008,03,26,08,12,1.80
2008,03,26,08,13,1.80
2008,03,26,08,14,1.80
2008,03,26,08,15,1.80
2008,03,26,08,16,1.70
2008,03,26,08,17,1.70
2008,03,26,08,18,1.70
2008,03,26,08,19,1.60
2008,03,26,08,20,1.60
2008,03,26,08,21,1.60
2008,03,26,08,22,1.60
2008,03,26,08,23,1.60
2008,03,26,08,24,1.60
2008,03,26,08,25,1.70
2008,03,26,08,26,1.70
2008,03,26,08,27,1.70
2008,03,26,08,28,1.80
2008,03,26,08,29,1.80
2008,03,26,08,30,1.80
2008,03,26,08,31,1.90
2008,03,26,08,32,1.90
2008,03,26,08,33,1.90
2008,03,26,08,34,1.90
2008,03,26,08,35,2.00
2008,03,26,08,36,2.00
2008,03,26,08,37,2.10
2008,03,26,08,38,2.10
2008,03,26,08,39,2.20
2008,03,26,08,40,2.20
2008,03,26,08,41,2.20
2008,03,26,08,42,2.30
2008,03,26,08,43,2.40
2008,03,26,08,44,2.40
2008,03,26,08,45,2.40
2008,03,26,08,46,2.40
2008,03,26,08,47,2.40
2008,03,26,08,48,2.40
2008,03,26,08,49,2.50
2008,03,26,08,50,2.50
2008,03,26,08,51,2.50
2008,03,26,08,52,2.50
2008,03,26,08,53,2.50
2008,03,26,08,54,2.50
2008,03,26,08,55,2.50
2008,03,26,08,56,2.60
2008,03,26,08,57,2.70
2008,03,26,08,58,2.80
2008,03,26,08,59,2.80
2008,03,26,09,00,2.80
2008,03,26,09,01,2.90
2008,03,26,09,02,2.90
2008,03,26,09,03,3.00
2008,03,26,09,04,3.10
2008,03,26,09,05,3.10
2008,03,26,09,06,3.10
2008,03,26,09,07,3.10
2008,03,26,09,08,3.10
2008,03,26,09,09,3.10
2008,03,26,09,10,3.10
2008,03,26,09,11,3.10
2008,03,26,09,12,3.10
2008,03,26,09,13,3.10
2008,03,26,09,14,3.10
2008,03,26,09,15,3.10
2008,03,26,09,16,3.10
2008,03,26,09,17,3.10
2008,03,26,09,18,3.10
2008,03,26,09,19,3.20
2008,03,26,09,20,3.20
2008,03,26,09,21,3.20
2008,03,26,09,22,3.20
2008,03,26,09,23,3.30
2008,03,26,09,24,3.30
2008,03,26,09,25,3.40
2008,03,26,09,26,3.40
2008,03,26,09,27,3.40
2008,03,26,09,28,3.40
2008,03,26,09,29,3.50
2008,03,26,09,30,3.50
2008,03,26,09,31,3.50
2008,03,26,09,32,3.50
2008,03,26,09,33,3.60
2008,03,26,09,34,3.60
2008,03,26,09,35,3.60
2008,03,26,09,36,3.60
2008,03,26,09,37,3.60
2008,03,26,09,38,3.70
2008,03,26,09,39,3.70
2008,03,26,09,40,3.70
2008,03,26,09,41,3.70
2008,03,26,09,42,3.80
2008,03,26,09,43,3.80
2008,03,26,09,44,3.80
2008,03,26,09,45,3.90
2008,03,26,09,46,3.90
2008,03,26,09,47,3.90
2008,03,26,09,48,4.00
2008,03,26,09,49,4.00
2008,03,26,09,50,4.10
2008,03,26,09,51,4.10
2008,03,26,09,52,4.20
2008,03,26,09,53,4.30
2008,03,26,09,54,4.40
2008,03,26,09,55,4.50
2008,03,26,09,56,4.60
2008,03,26,09,57,4.70
2008,03,26,09,58,4.70
2008,03,26,09,59,4.70
2008,03,26,10,00,4.70
2008,03,26,10,01,4.70
2008,03,26,10,02,4.70
2008,03,26,10,03,4.70
2008,03,26,10,04,4.80
2008,03,26,10,05,4.80
2008,03,26,10,06,4.90
2008,03,26,10,07,4.90
2008,03,26,10,08,5.00
2008,03,26,10,09,5.00
2008,03,26,10,10,5.00
2008,03,26,10,11,5.00
2008,03,26,10,12,5.00
2008,03,26,10,13,5.10
2008,03,26,10,14,5.10
2008,03,26,10,15,5.10
2008,03,26,10,16,5.10
2008,03,26,10,17,5.10
2008,03,26,10,18,5.10
2008,03,26,10,19,5.10
2008,03,26,10,20,5.10
2008,03,26,10,21,5.10
2008,03,26,10,22,5.10
2008,03,26,10,23,5.10
2008,03,26,10,24,5.10
2008,03,26,10,25,5.10
2008,03,26,10,26,5.20
2008,03,26,10,27,5.20
2008,03,26,10,28,5.10
2008,03,26,10,29,5.10
2008,03,26,10,30,5.10
2008,03,26,10,31,5.10
2008,03,26,10,32,5.10
2008,03,26,10,33,5.10
2008,03,26,10,34,5.10
2008,03,26,10,35,5.10
2008,03,26,10,36,5.20
2008,03,26,10,37,5.20
2008,03,26,10,38,5.20
2008,03,26,10,39,5.20
2008,03,26,10,40,5.20
2008,03,26,10,41,5.20
2008,03,26,10,42,5.20
2008,03,26,10,43,5.20
2008,03,26,10,44,5.20
2008,03,26,10,45,5.30
2008,03,26,10,46,5.30
2008,03,26,10,47,5.40
2008,03,26,10,48,5.40
2008,03,26,10,49,5.40
2008,03,26,10,50,5.50
2008,03,26,10,51,5.50
2008,03,26,10,52,5.50
2008,03,26,10,53,5.60
2008,03,26,10,54,5.60
2008,03,26,10,55,5.60
2008,03,26,10,56,5.60
2008,03,26,10,57,5.70
2008,03,26,10,58,5.70
2008,03,26,10,59,5.80
2008,03,26,11,00,5.90
2008,03,26,11,01,5.90
2008,03,26,11,02,5.90
2008,03,26,11,03,5.90
2008,03,26,11,04,5.80
2008,03,26,11,05,5.80
2008,03,26,11,06,5.80
2008,03,26,11,07,5.80
2008,03,26,11,08,5.80
2008,03,26,11,09,5.70
2008,03,26,11,10,5.80
2008,03,26,11,11,5.80
2008,03,26,11,12,5.80
2008,03,26,11,13,5.80
2008,03,26,11,14,5.80
2008,03,26,11,15,5.80
2008,03,26,11,16,5.80
2008,03,26,11,17,5.80
2008,03,26,11,18,5.80
2008,03,26,11,19,5.80
2008,03,26,11,20,5.80
2008,03,26,11,21,5.80
2008,03,26,11,22,5.80
2008,03,26,11,23,5.80
2008,03,26,11,24,5.80
2008,03,26,11,25,5.80
2008,03,26,11,26,5.80
2008,03,26,11,27,5.70
2008,03,26,11,28,5.70
2008,03,26,11,29,5.70
2008,03,26,11,30,5.70
2008,03,26,11,31,5.70
2008,03,26,11,32,5.80
2008,03,26,11,33,5.80
2008,03,26,11,34,5.90
2008,03,26,11,35,5.90
2008,03,26,11,36,6.00
2008,03,26,11,37,6.00
2008,03,26,11,38,6.10
2008,03,26,11,39,6.10
2008,03,26,11,40,6.10
2008,03,26,11,41,6.10
2008,03,26,11,42,6.20
2008,03,26,11,43,6.30
2008,03,26,11,44,6.30
2008,03,26,11,45,6.30
2008,03,26,11,46,6.20
2008,03,26,11,47,6.20
2008,03,26,11,48,6.20
2008,03,26,11,49,6.20
2008,03,26,11,50,6.20
2008,03,26,11,51,6.30
2008,03,26,11,52,6.20
2008,03,26,11,53,6.10
2008,03,26,11,54,6.10
2008,03,26,11,55,6.00
2008,03,26,11,56,6.10
2008,03,26,11,57,6.10
2008,03,26,11,58,6.30
2008,03,26,11,59,6.30
2008,03,26,12,00,6.40
2008,03,26,12,01,6.40
2008,03,26,12,02,6.40
2008,03,26,12,03,6.40
2008,03,26,12,04,6.50
2008,03,26,12,05,6.70
2008,03,26,12,06,6.80
2008,03,26,12,07,6.90
2008,03,26,12,08,6.80
2008,03,26,12,09,6.80
2008,03,26,12,10,6.80
2008,03,26,12,11,6.70
2008,03,26,12,12,6.70
2008,03,26,12,13,6.70
2008,03,26,12,14,6.70
2008,03,26,12,15,6.70
2008,03,26,12,16,6.80
2008,03,26,12,17,6.90
2008,03,26,12,18,7.00
2008,03,26,12,19,7.10
2008,03,26,12,20,7.00
2008,03,26,12,21,6.90
2008,03,26,12,22,6.80
2008,03,26,12,23,6.80
2008,03,26,12,24,6.80
2008,03,26,12,25,6.90
2008,03,26,12,26,7.10
2008,03,26,12,27,7.20
2008,03,26,12,28,7.40
2008,03,26,12,29,7.60
2008,03,26,12,30,7.70
2008,03,26,12,31,7.70
2008,03,26,12,32,7.60
2008,03,26,12,33,7.60
2008,03,26,12,34,7.50
2008,03,26,12,35,7.40
2008,03,26,12,36,7.40
2008,03,26,12,37,7.40
2008,03,26,12,38,7.40
2008,03,26,12,39,7.40
2008,03,26,12,40,7.30
2008,03,26,12,41,7.20
2008,03,26,12,42,7.20
2008,03,26,12,43,7.20
2008,03,26,12,44,7.20
2008,03,26,12,45,7.10
2008,03,26,12,46,7.10
2008,03,26,12,47,7.10
2008,03,26,12,48,7.10
2008,03,26,12,49,7.00
2008,03,26,12,50,7.00
2008,03,26,12,51,7.00
2008,03,26,12,52,7.00
2008,03,26,12,53,7.00
2008,03,26,12,54,6.90
2008,03,26,12,55,7.00
2008,03,26,12,56,7.00
2008,03,26,12,57,7.00
2008,03,26,12,58,6.90
2008,03,26,12,59,6.90
2008,03,26,13,00,6.90
2008,03,26,13,01,6.90
2008,03,26,13,02,6.90
2008,03,26,13,03,6.90
2008,03,26,13,04,6.90
2008,03,26,13,05,6.90
2008,03,26,13,06,6.80
2008,03,26,13,07,6.80
2008,03,26,13,08,6.80
2008,03,26,13,09,6.80
2008,03,26,13,10,6.80
2008,03,26,13,11,6.80
2008,03,26,13,12,6.80
2008,03,26,13,13,6.70
2008,03,26,13,14,6.70
2008,03,26,13,15,6.70
2008,03,26,13,16,6.70
2008,03,26,13,17,6.70
2008,03,26,13,18,6.70
2008,03,26,13,19,6.80
2008,03,26,13,20,6.80
2008,03,26,13,21,6.80
2008,03,26,13,22,6.80
2008,03,26,13,23,6.70
2008,03,26,13,24,6.70
2008,03,26,13,25,6.60
2008,03,26,13,26,6.60
2008,03,26,13,27,6.60
2008,03,26,13,28,6.60
2008,03,26,13,29,6.60
2008,03,26,13,30,6.50
2008,03,26,13,31,6.50
2008,03,26,13,32,6.50
2008,03,26,13,33,6.40
2008,03,26,13,34,6.30
2008,03,26,13,35,6.30
2008,03,26,13,36,6.30
2008,03,26,13,37,6.30
2008,03,26,13,38,6.30
2008,03,26,13,39,6.30
2008,03,26,13,40,6.30
2008,03,26,13,41,6.30
2008,03,26,13,42,6.30
2008,03,26,13,43,6.20
2008,03,26,13,44,6.20
2008,03,26,13,45,6.20
2008,03,26,13,46,6.20
2008,03,26,13,47,6.20
2008,03,26,13,48,6.20
2008,03,26,13,49,6.20
2008,03,26,13,50,6.20
2008,03,26,13,51,6.20
2008,03,26,13,52,6.20
2008,03,26,13,53,6.20
2008,03,26,13,54,6.30
2008,03,26,13,55,6.30
2008,03,26,13,56,6.40
2008,03,26,13,57,6.40
2008,03,26,13,58,6.40
2008,03,26,13,59,6.40
2008,03,26,14,00,6.40
2008,03,26,14,01,6.30
2008,03,26,14,02,6.30
2008,03,26,14,03,6.30
2008,03,26,14,04,6.30
2008,03,26,14,05,6.30
2008,03,26,14,06,6.30
2008,03,26,14,07,6.30
2008,03,26,14,08,6.30
2008,03,26,14,09,6.30
2008,03,26,14,10,6.30
2008,03,26,14,11,6.30
2008,03,26,14,12,6.40
2008,03,26,14,13,6.30
2008,03,26,14,14,6.30
2008,03,26,14,15,6.30
2008,03,26,14,16,6.30
2008,03,26,14,17,6.30
2008,03,26,14,18,6.30
2008,03,26,14,19,6.30
2008,03,26,14,20,6.30
2008,03,26,14,21,6.30
2008,03,26,14,22,6.30
2008,03,26,14,23,6.30
2008,03,26,14,24,6.30
2008,03,26,14,25,6.40
2008,03,26,14,26,6.40
2008,03,26,14,27,6.50
2008,03,26,14,28,6.60
2008,03,26,14,29,6.70
2008,03,26,14,30,6.80
2008,03,26,14,31,6.90
2008,03,26,14,32,6.90
2008,03,26,14,33,7.00
2008,03,26,14,34,7.10
2008,03,26,14,35,7.10
2008,03,26,14,36,7.20
2008,03,26,14,37,7.20
2008,03,26,14,38,7.20
2008,03,26,14,39,7.20
2008,03,26,14,40,7.10
2008,03,26,14,41,7.10
2008,03,26,14,42,7.00
2008,03,26,14,43,6.90
2008,03,26,14,44,6.90
2008,03,26,14,45,6.90
2008,03,26,14,46,6.80
2008,03,26,14,47,6.70
2008,03,26,14,48,6.60
2008,03,26,14,49,6.60
2008,03,26,14,50,6.60
2008,03,26,14,51,6.70
2008,03,26,14,52,6.80
2008,03,26,14,53,6.80
2008,03,26,14,54,6.80
2008,03,26,14,55,6.80
2008,03,26,14,56,6.80
2008,03,26,14,57,6.80
2008,03,26,14,58,6.70
2008,03,26,14,59,6.70
2008,03,26,15,00,6.70
2008,03,26,15,01,6.80
2008,03,26,15,02,6.80
2008,03,26,15,03,6.70
2008,03,26,15,04,6.70
2008,03,26,15,05,6.60
2008,03,26,15,06,6.60
2008,03,26,15,07,6.40
2008,03,26,15,08,6.30
2008,03,26,15,09,6.10
2008,03,26,15,10,5.70
2008,03,26,15,11,5.40
2008,03,26,15,12,5.20
2008,03,26,15,13,4.90
2008,03,26,15,14,4.70
2008,03,26,15,15,4.50
2008,03,26,15,16,4.40
2008,03,26,15,17,4.30
2008,03,26,15,18,4.20
2008,03,26,15,19,4.10
2008,03,26,15,20,4.10
2008,03,26,15,21,4.10
2008,03,26,15,22,4.10
2008,03,26,15,23,4.10
2008,03,26,15,24,4.10
2008,03,26,15,25,4.10
2008,03,26,15,26,4.10
2008,03,26,15,27,4.10
2008,03,26,15,28,4.10
2008,03,26,15,29,4.10
2008,03,26,15,30,4.10
2008,03,26,15,31,4.20
2008,03,26,15,32,4.20
2008,03,26,15,33,4.30
2008,03,26,15,34,4.30
2008,03,26,15,35,4.30
2008,03,26,15,36,4.30
2008,03,26,15,37,4.40
2008,03,26,15,38,4.40
2008,03,26,15,39,4.40
2008,03,26,15,40,4.40
2008,03,26,15,41,4.40
2008,03,26,15,42,4.40
2008,03,26,15,43,4.50
2008,03,26,15,44,4.50
2008,03,26,15,45,4.50
2008,03,26,15,46,4.60
2008,03,26,15,47,4.60
2008,03,26,15,48,4.60
2008,03,26,15,49,4.60
2008,03,26,15,50,4.50
2008,03,26,15,51,4.50
2008,03,26,15,52,4.50
2008,03,26,15,53,4.50
2008,03,26,15,54,4.50
2008,03,26,15,55,4.60
2008,03,26,15,56,4.60
2008,03,26,15,57,4.60
2008,03,26,15,58,4.70
2008,03,26,15,59,4.70
2008,03,26,16,00,4.70
2008,03,26,16,01,4.70
2008,03,26,16,02,4.70
2008,03,26,16,03,4.70
2008,03,26,16,04,4.80
2008,03,26,16,05,4.80
2008,03,26,16,06,4.80
2008,03,26,16,07,4.80
2008,03,26,16,08,4.80
2008,03,26,16,09,4.80
2008,03,26,16,10,4.80
2008,03,26,16,11,4.80
2008,03,26,16,12,4.80
2008,03,26,16,13,4.80
2008,03,26,16,14,4.80
2008,03,26,16,15,4.80
2008,03,26,16,16,4.80
2008,03,26,16,17,4.80
2008,03,26,16,18,4.80
2008,03,26,16,19,4.80
2008,03,26,16,20,4.80
2008,03,26,16,21,4.80
2008,03,26,16,22,4.80
2008,03,26,16,23,4.80
2008,03,26,16,24,4.80
2008,03,26,16,25,4.80
2008,03,26,16,26,4.80
2008,03,26,16,27,4.80
2008,03,26,16,28,4.90
2008,03,26,16,29,4.90
2008,03,26,16,30,4.90
2008,03,26,16,31,4.90
2008,03,26,16,32,4.90
2008,03,26,16,33,4.90
2008,03,26,16,34,4.90
2008,03,26,16,35,4.90
2008,03,26,16,36,5.00
2008,03,26,16,37,5.00
2008,03,26,16,38,5.10
2008,03,26,16,39,5.10
2008,03,26,16,40,5.20
2008,03,26,16,41,5.20
2008,03,26,16,42,5.30
2008,03,26,16,43,5.30
2008,03,26,16,44,5.30
2008,03,26,16,45,5.30
2008,03,26,16,46,5.30
2008,03,26,16,47,5.30
2008,03,26,16,48,5.30
2008,03,26,16,49,5.40
2008,03,26,16,50,5.40
2008,03,26,16,51,5.40
2008,03,26,16,52,5.40
2008,03,26,16,53,5.50
2008,03,26,16,54,5.50
2008,03,26,16,55,5.60
2008,03,26,16,56,5.60
2008,03,26,16,57,5.70
2008,03,26,16,58,5.70
2008,03,26,16,59,5.70
2008,03,26,17,00,5.70
2008,03,26,17,01,5.70
2008,03,26,17,02,5.70
2008,03,26,17,03,5.70
2008,03,26,17,04,5.70
2008,03,26,17,05,5.70
2008,03,26,17,06,5.70
2008,03,26,17,07,5.70
2008,03,26,17,08,5.80
2008,03,26,17,09,5.80
2008,03,26,17,10,5.80
2008,03,26,17,11,5.90
2008,03,26,17,12,5.90
2008,03,26,17,13,5.90
2008,03,26,17,14,5.80
2008,03,26,17,15,5.80
2008,03,26,17,16,5.70
2008,03,26,17,17,5.70
2008,03,26,17,18,5.70
2008,03,26,17,19,5.70
2008,03,26,17,20,5.60
2008,03,26,17,21,5.60
2008,03,26,17,22,5.60
2008,03,26,17,23,5.60
2008,03,26,17,24,5.60
2008,03,26,17,25,5.70
2008,03,26,17,26,5.70
2008,03,26,17,27,5.70
2008,03,26,17,28,5.60
2008,03,26,17,29,5.60
2008,03,26,17,30,5.60
2008,03,26,17,31,5.60
2008,03,26,17,32,5.60
2008,03,26,17,33,5.70
2008,03,26,17,34,5.70
2008,03,26,17,35,5.70
2008,03,26,17,36,5.70
2008,03,26,17,37,5.70
2008,03,26,17,38,5.70
2008,03,26,17,39,5.60
2008,03,26,17,40,5.60
2008,03,26,17,41,5.60
2008,03,26,17,42,5.50
2008,03,26,17,43,5.50
2008,03,26,17,44,5.50
2008,03,26,17,45,5.50
2008,03,26,17,46,5.50
2008,03,26,17,47,5.50
2008,03,26,17,48,5.50
2008,03,26,17,49,5.40
2008,03,26,17,50,5.40
2008,03,26,17,51,5.40
2008,03,26,17,52,5.40
2008,03,26,17,53,5.40
2008,03,26,17,54,5.40
2008,03,26,17,55,5.40
2008,03,26,17,56,5.50
2008,03,26,17,57,5.50
2008,03,26,17,58,5.50
2008,03,26,17,59,5.50
2008,03,26,18,00,5.50
2008,03,26,18,01,5.50
2008,03,26,18,02,5.40
2008,03,26,18,03,5.40
2008,03,26,18,04,5.40
2008,03,26,18,05,5.40
2008,03,26,18,06,5.40